Location: Bremen
(53.0796°N, 8.8241°E)
Time: 22:01:25
(UTC+02:00)

ISS - Visible Passes

Search period start: 18 July 2018 00:00
Search period end: 28 July 2018 00:00
Orbit: 402 x 408 km, 51.6° (Epoch: 19 July)

Date Brightness Start Highest point End Pass type
(mag) Time Alt. Az. Time Alt. Az. Time Alt. Az.
18 Jul -3.2 00:50:10 36° SSE 00:50:10 36° SSE 00:53:04 10° E visible
18 Jul -3.9 02:23:00 10° W 02:26:17 69° S 02:29:34 10° E visible
18 Jul -3.6 03:59:25 10° W 04:02:38 48° SSW 04:05:50 10° ESE visible
18 Jul -2.8 23:58:10 26° SSE 23:58:10 26° SSE 00:00:53 10° E visible
19 Jul -3.9 01:30:57 10° WSW 01:34:13 62° S 01:37:30 10° E visible
19 Jul -3.8 03:07:20 10° W 03:10:35 60° SSW 03:13:51 10° ESE visible
19 Jul -2.4 23:03:47 10° SSW 23:06:09 18° SE 23:08:31 10° E visible
20 Jul -3.8 00:38:57 10° WSW 00:42:10 52° SSE 00:45:23 10° E visible
20 Jul -3.9 02:15:15 10° W 02:18:32 67° S 02:21:49 10° ESE visible
20 Jul -3.1 03:51:45 10° W 03:54:46 33° SSW 03:57:46 10° SE visible
20 Jul -3.4 23:47:02 10° SW 23:50:08 40° SSE 23:53:16 10° E visible
21 Jul -4.0 01:23:09 10° W 01:26:26 70° S 01:29:44 10° E visible
21 Jul -3.6 02:59:36 10° W 03:02:46 44° SSW 03:05:56 10° SE visible
21 Jul -2.0 04:36:49 10° WSW 04:38:40 14° SW 04:40:32 10° S visible
21 Jul -3.0 22:55:13 10° SW 22:58:08 30° SSE 23:01:03 10° E visible
22 Jul -3.9 00:31:04 10° WSW 00:34:20 65° S 00:37:37 10° E visible
22 Jul -3.8 02:07:28 10° W 02:10:42 56° SSW 02:13:56 10° ESE visible
22 Jul -2.5 03:44:13 10° W 03:46:46 21° SSW 03:49:20 10° SSE visible
22 Jul -3.8 23:39:01 10° WSW 23:42:14 56° SSE 23:45:29 10° E visible
23 Jul -3.9 01:15:20 10° W 01:18:36 65° S 01:20:47 19° ESE visible
23 Jul -2.2 02:51:53 10° W 02:53:16 20° WSW 02:53:16 20° WSW visible
23 Jul -3.5 22:47:01 10° SW 22:50:09 44° SSE 22:53:19 10° E visible
24 Jul -4.0 00:23:12 10° W 00:26:29 69° S 00:29:04 15° E visible
24 Jul -2.7 01:59:39 10° W 02:01:39 29° WSW 02:01:39 29° WSW visible
24 Jul -3.9 23:31:04 10° WSW 23:34:21 68° S 23:37:37 10° E visible
25 Jul -3.7 01:07:29 10° W 01:10:40 51° SSW 01:10:40 51° SSW visible
25 Jul -3.8 22:38:58 10° WSW 22:42:12 60° S 22:45:27 10° E visible
26 Jul -3.9 00:15:19 10° W 00:18:34 62° S 00:19:52 32° ESE visible
26 Jul -1.5 01:51:55 10° W 01:52:29 13° W 01:52:29 13° W visible
26 Jul -3.9 23:23:08 10° W 23:26:25 69° S 23:29:09 14° ESE visible
27 Jul -2.7 00:59:37 10° W 01:01:47 29° WSW 01:01:47 29° WSW visible
27 Jul -3.9 22:30:58 10° W 22:34:14 69° S 22:37:30 10° E visible
